STARLINK-2433, 47841

Orbit data source: Space-Track

STARLINK-2433, 47841 is a payload satellite owned by SpaceX/Seattle (US) in LEO that was launched on Thu, 11 Mar 2021 UTC via an FALCON 9 launch vehicle from the Air Force Eastern Test Range (AFETR). Payload-class satellites include a variety of spacecraft equipped with specific instruments for various scientific and technological missions. These include communications satellites like Starlink; space stations such as the ISS; scientific satellites like the Hubble; Earth observation satellites from companies like Planet Labs, Umbra, and HawkEye 360; GPS; miniature CubeSats for education and research; and military/defense satellites.

Loading next visibility...
Identifier
47841, 2021-018BG
Orbit
LEO
Country
Flag of USUS
Related business
Manufacturer
SpaceX/Seattle
Mission
Operational Commercial Communications
Bus & Motor
STARLINK, Unknown motor
Mass
260 kg wet, ~248 kg dry
Launch date (UTC)
2021-03-11 (5 years ago)
Launch vehicle
FALCON 9
Launch site
Air Force Eastern Test Range (AFETR)
Object type
Payload
Rocket body
Debris
Shape & HBR
Box + 1 Pan, 10.1 m
Radar Cross Section
13.562 m², Large (>1 m²)

Expand to show TLE details & history
Last TLE update: 2 days ago

TLE from 2 days ago
0 STARLINK-2433
1 47841U 21018BG  26171.23733694  .00001105  00000-0  47358-4 0  9998
2 47841  53.1612 121.9875 0001422  97.5730 262.5433 15.31700018292472
Epoch: 2026-06-20T05:41Z
TLE epoch observation values (Epoch: 2026-06-20T05:41:45.911Z)
Latitude
-0.00003°
Longitude
128.09134°
Altitude
471.767 km
Speed
7.631 km/s
True Right ascension
08h 07m 56s
True Declination
0° 00' 00"
Sunlit
Object was in daylight at epoch
Visualization orbit readout
Latitude
Unknown
Longitude
Unknown
Altitude
Unknown
Speed
Unknown
Apparent Right ascension
Unknown
Apparent Declination
Unknown
Sunlit
N/A
Visualization observer readout
Local Sidereal Time
21:39:26
Azimuth
Unknown
Elevation
Unknown
Doppler factor
Unknown
Orbital elements
Apogee altitude
471.97 km
Perigee altitude
470.022 km
Semi-major axis
6,849.133 km
Eccentricity
0.00014
Inclination
53.1612°
RAAN
121.9875°
Arg. of periapsis
97.573°
True anomaly
262.52714°
Mean anomaly
262.5433°
Eccentric anomaly
262.53522°
Mean motion
3.82904 °/min
Orbital period
94.02 mins
BSTAR
0.000047358
Loading maneuver chart data...
Computing Atmospheric mass density...
Loading historical data...
Loading historical data...
Loading historical data...
Loading historical data...
Loading historical data...
Loading historical data...
Loading historical data...

Documentation

Showing up to 5 results
|